Date,TemperatureHighF,TemperatureAvgF,TemperatureLowF,DewpointHighF,DewpointAvgF,DewpointLowF,HumidityHigh,HumidityAvg,HumidityLow,PressureMaxIn,PressureMinIn,WindSpeedMaxMPH,WindSpeedAvgMPH,GustSpeedMaxMPH,PrecipitationSumIn
2013-9-1,86.8,78.7,67.3,75.1,71.5,65.0,95,80,64,29.82,29.73,5,1,7,0.26
2013-9-2,89.9,77.8,66.5,75.5,70.5,65.0,96,80,58,29.77,29.65,6,0,7,0.05
2013-9-3,77.8,71.0,64.6,67.0,60.2,56.0,89,70,49,29.94,29.69,8,2,7,0.00
2013-9-4,82.4,70.3,53.0,62.0,57.6,51.0,95,67,45,30.05,29.94,8,1,11,0.00
2013-9-5,78.0,66.9,54.0,62.0,52.2,46.0,95,63,32,30.18,29.97,8,1,8,0.00
2013-9-6,76.3,60.4,41.5,50.1,45.4,39.0,94,62,33,30.29,30.13,4,0,4,0.00
2013-9-7,79.2,61.9,43.4,59.3,51.1,41.0,94,71,39,30.14,29.90,4,0,0,0.00
2013-9-8,78.2,69.6,52.6,66.0,57.7,45.0,93,68,49,30.11,29.86,8,2,8,0.00
2013-9-9,74.1,61.9,40.7,60.0,52.0,38.0,94,72,51,30.22,30.10,6,0,5,0.00
2013-9-10,92.8,76.1,62.6,75.0,67.9,60.0,92,77,55,30.13,30.01,6,1,0,0.00
2013-9-11,97.0,79.8,67.5,78.1,71.4,66.0,96,77,51,30.11,29.94,8,1,7,0.03
2013-9-12,86.0,72.4,67.3,74.4,69.1,65.3,96,90,63,29.97,29.71,9,0,13,0.30
2013-9-13,70.7,63.1,54.5,66.0,55.4,47.0,95,77,51,29.94,29.69,10,2,4,0.01
2013-9-14,63.4,54.0,43.1,49.0,46.1,40.0,90,75,55,30.16,29.94,6,1,8,0.00
2013-9-15,73.5,55.4,39.5,55.0,48.0,37.0,95,79,45,30.26,30.05,6,0,0,0.00
2013-9-16,68.5,60.7,50.6,57.0,52.4,41.0,94,75,58,30.32,30.04,6,1,9,0.06
2013-9-17,72.0,51.9,34.9,46.0,40.6,33.0,94,70,34,30.47,30.31,5,0,9,0.00
2013-9-18,76.4,54.7,38.1,51.0,44.5,36.0,95,72,39,30.35,30.16,4,0,0,0.00
2013-9-19,81.7,58.1,39.8,59.0,49.4,38.0,99,76,44,30.19,30.05,5,0,0,0.00
2013-9-20,84.5,65.9,46.7,62.1,55.9,45.0,95,73,44,30.09,29.92,6,1,5,0.00
2013-9-21,71.2,64.4,57.1,63.0,59.7,54.0,94,85,72,29.93,29.65,6,1,7,0.46
2013-9-22,64.0,58.5,49.4,58.0,48.5,44.0,95,71,53,29.97,29.70,6,1,10,0.01
2013-9-23,65.0,54.5,42.9,47.0,43.3,40.0,88,67,50,30.09,29.98,9,1,0,0.00
2013-9-24,75.5,52.7,36.7,51.0,43.6,35.0,95,75,39,30.12,29.94,6,1,0,0.00
2013-9-25,78.5,58.9,37.8,55.0,47.3,36.0,95,69,38,30.01,29.88,5,0,5,0.00
2013-9-26,77.4,59.1,41.4,56.2,49.7,39.0,96,74,43,30.09,29.96,3,0,4,0.00
2013-9-27,77.9,63.5,50.4,55.0,51.9,47.0,88,69,43,30.24,30.08,6,0,4,0.00
2013-9-28,73.2,59.4,48.2,57.0,51.6,45.0,93,77,52,30.32,30.21,3,0,0,0.00
2013-9-29,75.8,57.0,41.4,56.8,48.7,40.0,95,76,45,30.23,30.06,4,0,5,0.00
2013-9-30,79.3,57.7,43.1,58.0,50.1,41.0,95,78,44,30.09,29.95,4,0,0,0.00